Content
SEND FEEDBACK

Daily
Averages
Monthly
Summary
United States of America

VIENNA, GEORGIA


Home > North America > United States > Georgia
Elevation: 301 feet     Latitude: 32 00N     Longitude: 083 47W

WEATHER
 
SELECT A DAY
Number of Records: 78,630;   Date Range: 7/11/11 - 10/21/14
 
SHARE

PRINT THIS DATA

[ ← Previous Day ]
WEATHER ALMANAC - JANUARY 31, 2013
[ Next Day → ]
[ °C ]   °F
Weather ElementAverageHighLow
Temperature44.4 °F53.6 °F (3:15 pm)35.6 °F (7:35 am)
Dewpoint28.9 °F37.4 °F (12:55 am)23 °F (1:15 pm)
Humidity57.4 %87 % (7:35 am)30 % (3:15 pm)
Barometer30.14 in30.26 in (9:55 pm)29.95 in (12:55 am)
Wind Speed9.8 mph21.9 mph (12:55 am)
Wind Gust33.4 mph (12:55 am)
Weather ElementAverage
Visibility10 mi
Wind DirectionW (271.2 °)

Weather ElementTotal
Precipitation---
Heating Degree Days20.4 (Base 65)
Averaged from 68 records on January 31, 2013
WEATHER CONDITIONS BREAKOUT
WIND DIRECTION BREAKOUT
WEATHER BY HOUR - JANUARY 31, 2013
[ °C ]   °F
Local TimeTemperatureDewpointHumidityBarometerVisibilityWind DirectionWind SpeedGust SpeedPrecipitationEventsConditions
12:55 AM46.4 °F37.4 °F71 %29.95 in10.0 miWNW (300°)21.9 mph33.4 mphMostly Cloudy
1:15 AM46.4 °F32.0 °F57 %29.97 in10.0 miWNW (300°)21.9 mph33.4 mphOvercast
1:35 AM46.4 °F33.8 °F62 %29.98 in10.0 miWNW (300°)16.1 mph24.2 mphOvercast
1:55 AM44.6 °F33.8 °F66 %29.99 in10.0 miWest (280°)17.3 mph26.5 mphOvercast
2:15 AM44.6 °F33.8 °F66 %30.00 in10.0 miWNW (290°)16.1 mph25.3 mphMostly Cloudy
2:35 AM44.6 °F33.8 °F66 %30.00 in10.0 miWNW (300°)13.8 mph19.6 mphMostly Cloudy
2:55 AM42.8 °F32.0 °F66 %30.02 in10.0 miWNW (290°)13.8 mph25.3 mphMostly Cloudy
3:15 AM42.8 °F32.0 °F66 %30.01 in10.0 miWNW (290°)16.1 mph20.7 mphClear
3:35 AM42.8 °F32.0 °F66 %30.02 in10.0 miWest (280°)12.7 mph17.3 mphMostly Cloudy
3:55 AM41.0 °F32.0 °F70 %30.02 in10.0 miWNW (300°)13.8 mph21.9 mphMostly Cloudy
4:15 AM41.0 °F32.0 °F70 %30.03 in10.0 miWNW (300°)12.7 mphScattered Clouds
4:35 AM41.0 °F32.0 °F70 %30.03 in10.0 miWNW (300°)11.5 mph17.3 mphMostly Cloudy
4:55 AM41.0 °F32.0 °F70 %30.04 in10.0 miWNW (300°)11.5 mphScattered Clouds
5:15 AM41.0 °F32.0 °F70 %30.05 in10.0 miWNW (290°)12.7 mph17.3 mphClear
5:35 AM39.2 °F32.0 °F75 %30.06 in10.0 miWNW (290°)9.2 mphClear
5:55 AM39.2 °F32.0 °F75 %30.08 in10.0 miWNW (300°)9.2 mphClear
6:15 AM37.4 °F32.0 °F81 %30.08 in10.0 miWNW (290°)9.2 mphClear
6:35 AM37.4 °F32.0 °F81 %30.08 in10.0 miWNW (300°)9.2 mphClear
7:15 AM37.4 °F32.0 °F81 %30.09 in10.0 miWNW (300°)8.1 mphClear
7:35 AM35.6 °F32.0 °F87 %30.09 in10.0 miWNW (300°)6.9 mphClear
7:55 AM35.6 °F32.0 °F87 %30.10 in10.0 miWNW (290°)6.9 mphClear
8:15 AM37.4 °F32.0 °F81 %30.11 in10.0 miNW (310°)8.1 mphClear
8:55 AM37.4 °F32.0 °F81 %30.13 in10.0 miNW (310°)10.4 mph19.6 mphClear
9:15 AM39.2 °F32.0 °F75 %30.14 in10.0 miNW (310°)11.5 mph17.3 mphClear
9:35 AM41.0 °F32.0 °F70 %30.15 in10.0 miNW (310°)11.5 mphClear
9:55 AM41.0 °F30.2 °F65 %30.16 in10.0 miNW (320°)11.5 mphClear
10:15 AM42.8 °F30.2 °F61 %30.16 in10.0 miNW (310°)11.5 mph19.6 mphClear
10:35 AM42.8 °F30.2 °F61 %30.17 in10.0 miWNW (290°)15.0 mph19.6 mphClear
10:55 AM42.8 °F28.4 °F57 %30.17 in10.0 miNW (310°)11.5 mph18.4 mphClear
11:15 AM44.6 °F26.6 °F49 %30.19 in10.0 miWNW (300°)16.1 mph23.0 mphClear
11:35 AM46.4 °F28.4 °F50 %30.19 in10.0 miNW (310°)12.7 mph17.3 mphClear
11:55 AM46.4 °F26.6 °F46 %30.19 in10.0 miNW (310°)12.7 mph20.7 mphClear
12:15 PM48.2 °F26.6 °F43 %30.19 in10.0 miWNW (290°)12.7 mph19.6 mphClear
12:35 PM50.0 °F26.6 °F40 %30.19 in10.0 miWNW (300°)12.7 mph18.4 mphClear
12:55 PM50.0 °F24.8 °F37 %30.19 in10.0 miWNW (300°)16.1 mph19.6 mphClear
1:15 PM50.0 °F23.0 °F35 %30.18 in10.0 miNW (310°)17.3 mph23.0 mphClear
1:35 PM50.0 °F24.8 °F37 %30.17 in10.0 miNW (320°)15.0 mph19.6 mphClear
1:55 PM51.8 °F24.8 °F35 %30.16 in10.0 miNW (310°)9.2 mph19.6 mphClear
2:15 PM51.8 °F23.0 °F33 %30.16 in10.0 miNW (320°)13.8 mph21.9 mphClear
2:35 PM51.8 °F23.0 °F33 %30.16 in10.0 miWNW (300°)9.2 mph21.9 mphClear
2:55 PM51.8 °F23.0 °F33 %30.16 in10.0 miNW (320°)15.0 mph19.6 mphClear
3:15 PM53.6 °F23.0 °F30 %30.16 in10.0 miNW (310°)10.4 mph19.6 mphClear
3:35 PM53.6 °F23.0 °F30 %30.16 in10.0 miNNW (340°)16.1 mph23.0 mphClear
3:55 PM53.6 °F23.0 °F30 %30.16 in10.0 miNW (320°)10.4 mphClear
4:15 PM53.6 °F23.0 °F30 %30.16 in10.0 miNW (320°)12.7 mph20.7 mphClear
4:35 PM53.6 °F23.0 °F30 %30.16 in10.0 miNW (310°)12.7 mph21.9 mphClear
4:55 PM53.6 °F23.0 °F30 %30.16 in10.0 miNW (310°)8.1 mphClear
5:15 PM53.6 °F23.0 °F30 %30.17 in10.0 miWNW (300°)6.9 mphClear
5:35 PM51.8 °F23.0 °F33 %30.17 in10.0 miNW (310°)6.9 mphClear
5:55 PM50.0 °F24.8 °F37 %30.17 in10.0 miWNW (300°)5.8 mphClear
6:15 PM50.0 °F26.6 °F40 %30.18 in10.0 miWNW (290°)4.6 mphClear
6:35 PM46.4 °F26.6 °F46 %30.18 in10.0 miCalmClear
6:55 PM44.6 °F28.4 °F53 %30.20 in10.0 miWest (260°)3.5 mphClear
7:15 PM42.8 °F28.4 °F57 %30.20 in10.0 miCalmClear
7:35 PM42.8 °F30.2 °F61 %30.21 in10.0 miCalmClear
7:55 PM41.0 °F30.2 °F65 %30.22 in10.0 miCalmClear
8:15 PM39.2 °F32.0 °F75 %30.23 in10.0 miCalmClear
8:35 PM41.0 °F30.2 °F65 %30.24 in10.0 miWest (260°)3.5 mphClear
8:55 PM42.8 °F28.4 °F57 %30.24 in10.0 miWest (260°)3.5 mphClear
9:15 PM41.0 °F30.2 °F65 %30.25 in10.0 miWest (260°)3.5 mphClear
9:35 PM39.2 °F30.2 °F70 %30.25 in10.0 miWSW (240°)3.5 mphClear
9:55 PM41.0 °F30.2 °F65 %30.26 in10.0 miWSW (240°)3.5 mphClear
10:15 PM41.0 °F30.2 °F65 %30.25 in10.0 miWSW (240°)3.5 mphClear
10:35 PM41.0 °F28.4 °F61 %30.25 in10.0 miSW (230°)4.6 mphClear
10:55 PM39.2 °F28.4 °F65 %30.24 in10.0 miSW (230°)3.5 mphClear
11:15 PM39.2 °F28.4 °F65 %30.25 in10.0 miWSW (250°)5.8 mphClear
11:35 PM41.0 °F28.4 °F61 %30.25 in10.0 miWSW (250°)5.8 mphClear
11:55 PM41.0 °F28.4 °F61 %30.26 in10.0 miWest (260°)5.8 mphClear
Hourly data recorded from KACJ, located miles away from Vienna, Georgia







STORIES FROM OUR PARTNERS